Regional Weather Roundup
Issued by NWS Little Rock, AR

Home | Current Version | Previous Version | Graphics & Text | Print | Product List | Glossary On
Versions: 1 2 3 4 5 6 7 8 9 10 11 12 13 14 15 16 17 18 19 20 21 22 23 24 25 26 27 28 29 30 31 32 33 34 35 36 37 38 39 40 41 42 43 44 45 46 47 48 49 50
000
ASUS44 KLZK 281005
RWRLZK

WEATHER ROUNDUP FOR ARKANSAS
NATIONAL WEATHER SERVICE LITTLE ROCK AR
400 AM CST TUE FEB 28 2017

NOTE: "FAIR" INDICATES FEW OR NO CLOUDS BELOW 12,000 FEET WITH NO
SIGNIFICANT WEATHER AND/OR OBSTRUCTIONS TO VISIBILITY.

ARZ001-003-010-029-281100-
NORTHWEST ARKANSAS

CITY           SKY/WX    TMP DP  RH WIND       PRES   REMARKS
FAYETTEVILLE   CLOUDY    60  60 100 S17G25    29.86F
FORT SMITH     CLOUDY    59  55  87 NE7       29.88S
HARRISON       CLOUDY    59  58  96 S12       29.89F
BENTONVILLE    CLOUDY    63  57  82 S13       29.85F
ROGERS         CLOUDY    62  58  86 S16G24    29.85F
SILOAM SPGS    CLOUDY    63  57  82 S16G22    29.84F
HIGHFILL       CLOUDY    62  59  90 S17G24    29.84F
$$

ARZ004-005-016-281100-
NORTH CENTRAL ARKANSAS

CITY           SKY/WX    TMP DP  RH WIND       PRES   REMARKS
BATESVILLE     CLOUDY    57  55  94 S6        29.97F
FLIPPIN        CLOUDY    61  54  77 S8        29.89F
MTN HOME       CLOUDY    59  56  89 SW9       29.90F
$$

ARZ040-041-281100-
WEST CENTRAL ARKANSAS

CITY           SKY/WX    TMP DP  RH WIND       PRES   REMARKS
MENA           CLOUDY    64  64 100 S5        29.94R
MOUNT IDA      CLOUDY    65  62  90 VRB6      29.92S
$$

ARZ009-017-025-026-028-281100-
NORTHEAST ARKANSAS

CITY           SKY/WX    TMP DP  RH WIND       PRES   REMARKS
CORNING        CLOUDY    57  57 100 S10       29.97S
JONESBORO      CLOUDY    59  56  89 S14       29.98S
NEWPORT        CLOUDY    59  58  96 S12         N/A
WALNUT RIDGE   CLOUDY    55  52  88 S5        29.97S
BLYTHEVILLE    CLOUDY    61  57  87 S12       29.99F
$$

ARZ022-023-033-042-044-281100-
CENTRAL ARKANSAS

CITY           SKY/WX    TMP DP  RH WIND       PRES   REMARKS
LITTLE ROCK    CLOUDY    60  60 100 SE5       29.97F
N LITTLE ROCK    N/A     59  58  96 CALM      29.99S
JACKSONVILLE   CLOUDY    60  59  99 SE6       29.96F
SEARCY         CLOUDY    60  59  96 S9        29.99F
HOT SPRINGS    CLOUDY    62  61  96 S6        29.97S
RUSSELLVILLE   CLOUDY    60  56  86 SE3       29.93F
CLINTON        CLOUDY    55  55 100 CALM      29.96F
$$

ARZ036-281100-
EAST ARKANSAS

CITY           SKY/WX    TMP DP  RH WIND       PRES   REMARKS
WEST MEMPHIS   CLOUDY    62  60  93 S14       30.00F
$$

ARZ050-053-066-070-073-281100-
SOUTHWEST ARKANSAS

CITY           SKY/WX    TMP DP  RH WIND       PRES   REMARKS
ARKADELPHIA    CLOUDY    59  59 100 CALM      29.97S
CAMDEN         CLOUDY    63  59  88 SE5       29.98R
TEXARKANA      CLOUDY    63  63 100 S9        29.94S
EL DORADO      CLOUDY    63  62  97 SE7       29.99S
DE QUEEN       CLOUDY    63  63 100 VRB3      29.90F FOG
$$

ARZ056-057-069-281100-
SOUTHEAST ARKANSAS

CITY           SKY/WX    TMP DP  RH WIND       PRES   REMARKS
PINE BLUFF     CLOUDY    59  58  96 SE5       29.99S
STUTTGART      CLOUDY    61  54  77 S14       30.00S
MONTICELLO     CLOUDY    64  62  93 S12       30.00S

$$





USA.gov is the U.S. government's official web portal to all federal, state and local government web resources and services.